• In Portugal
  • List of Countries
  • For 7 days
  • Water Temperature
  • Satellite Maps
  • Weather Map
  • Weather Widgets
  • user-avatar
    Login

    Hourly Weather Farim

    Today, 17 October, Tuesday

    Time Temperature Precipitation Wind Pressure Humidity
    00:00 +27°C° 0.7 mm 1 mps 760 mmHg 93%
    01:00 +27°C° 0.7 mm 1 mps 760 mmHg 94%
    02:00 +26°C° 0.7 mm 1 mps 759 mmHg 96%
    03:00 +26°C° 0 mm 1 mps 759 mmHg 96%
    04:00 +26°C° 0 mm 1 mps 759 mmHg 96%
    05:00 +26°C° 0 mm 1 mps 759 mmHg 95%
    06:00 +27°C° 0 mm 1 mps 760 mmHg 91%
    07:00 +28°C° 0 mm 1 mps 760 mmHg 87%
    08:00 +29°C° 0 mm 1 mps 760 mmHg 83%
    09:00 +32°C° 0 mm 1 mps 760 mmHg 71%
    10:00 +35°C° 0 mm 1 mps 760 mmHg 60%
    11:00 +35°C° 0 mm 0 mps 760 mmHg 51%
    12:00 +37°C° 0 mm 1 mps 760 mmHg 47%
    13:00 +39°C° 0 mm 1 mps 759 mmHg 44%
    14:00 +39°C° 0 mm 1 mps 759 mmHg 40%
    15:00 +37°C° 0 mm 1 mps 758 mmHg 45%
    16:00 +36°C° 0 mm 1 mps 758 mmHg 49%
    17:00 +35°C° 0 mm 1 mps 758 mmHg 54%
    18:00 +33°C° 0.1 mm 1 mps 758 mmHg 58%
    19:00 +32°C° 0.1 mm 1 mps 759 mmHg 62%
    20:00 +30°C° 0.1 mm 1 mps 759 mmHg 66%
    21:00 +29°C° 1 mm 1 mps 759 mmHg 72%
    22:00 +29°C° 1 mm 2 mps 759 mmHg 78%
    23:00 +28°C° 1 mm 2 mps 760 mmHg 84%

    Tomorrow, 18 October, Wednesday

    Time Temperature Precipitation Wind Pressure Humidity
    00:00 +27°C° 0 mm 2 mps 759 mmHg 85%
    01:00 +27°C° 0 mm 2 mps 759 mmHg 86%
    02:00 +27°C° 0 mm 1 mps 758 mmHg 87%
    03:00 +27°C° 0 mm 1 mps 758 mmHg 87%
    04:00 +26°C° 0 mm 1 mps 758 mmHg 88%
    05:00 +24°C° 0 mm 0 mps 758 mmHg 88%
    06:00 +26°C° 0 mm 0 mps 759 mmHg 83%
    07:00 +27°C° 0 mm 0 mps 759 mmHg 77%
    08:00 +29°C° 0 mm 0 mps 759 mmHg 71%
    09:00 +33°C° 0 mm 1 mps 759 mmHg 63%
    10:00 +35°C° 0 mm 1 mps 759 mmHg 54%
    11:00 +37°C° 0 mm 1 mps 759 mmHg 45%
    12:00 +39°C° 0 mm 1 mps 758 mmHg 42%
    13:00 +39°C° 0 mm 1 mps 757 mmHg 39%
    14:00 +40°C° 0 mm 1 mps 757 mmHg 36%
    15:00 +39°C° 0 mm 1 mps 757 mmHg 42%
    16:00 +37°C° 0 mm 2 mps 757 mmHg 48%
    17:00 +36°C° 0 mm 2 mps 757 mmHg 53%
    18:00 +34°C° 0 mm 2 mps 757 mmHg 59%
    19:00 +32°C° 0 mm 2 mps 758 mmHg 64%
    20:00 +30°C° 0 mm 3 mps 758 mmHg 69%
    21:00 +29°C° 0 mm 2 mps 759 mmHg 72%
    22:00 +29°C° 0 mm 2 mps 759 mmHg 75%
    23:00 +28°C° 0 mm 2 mps 759 mmHg 78%

    Day after tomorrow, 19 October, Thursday

    Time Temperature Precipitation Wind Pressure Humidity
    00:00 +27°C° 0 mm 2 mps 759 mmHg 80%
    01:00 +27°C° 0 mm 2 mps 758 mmHg 82%
    02:00 +26°C° 0 mm 2 mps 758 mmHg 84%
    03:00 +26°C° 0 mm 2 mps 758 mmHg 86%
    04:00 +26°C° 0 mm 2 mps 758 mmHg 88%
    05:00 +26°C° 0 mm 2 mps 758 mmHg 90%
    06:00 +27°C° 0 mm 2 mps 758 mmHg 85%
    07:00 +29°C° 0 mm 2 mps 759 mmHg 79%
    08:00 +30°C° 0 mm 2 mps 759 mmHg 74%
    09:00 +32°C° 0 mm 2 mps 759 mmHg 65%
    10:00 +35°C° 0 mm 2 mps 759 mmHg 57%
    11:00 +37°C° 0 mm 2 mps 759 mmHg 48%
    12:00 +38°C° 0 mm 2 mps 758 mmHg 46%
    13:00 +38°C° 0 mm 2 mps 757 mmHg 43%
    14:00 +39°C° 0 mm 2 mps 756 mmHg 41%
    15:00 +38°C° 0 mm 2 mps 756 mmHg 47%
    16:00 +36°C° 0 mm 2 mps 756 mmHg 52%
    17:00 +35°C° 0 mm 2 mps 756 mmHg 58%
    18:00 +34°C° 0 mm 2 mps 757 mmHg 63%
    19:00 +31°C° 0 mm 2 mps 758 mmHg 69%
    20:00 +29°C° 0 mm 3 mps 758 mmHg 75%
    21:00 +29°C° 0 mm 3 mps 758 mmHg 77%
    22:00 +28°C° 0 mm 3 mps 758 mmHg 80%
    23:00 +28°C° 0 mm 2 mps 758 mmHg 82%

    20 October, Friday

    Time Temperature Precipitation Wind Pressure Humidity
    00:00 +27°C° 0 mm 2 mps 758 mmHg 84%
    01:00 +27°C° 0 mm 2 mps 757 mmHg 86%
    02:00 +27°C° 0 mm 2 mps 757 mmHg 88%
    03:00 +26°C° 0 mm 1 mps 757 mmHg 91%
    04:00 +26°C° 0 mm 1 mps 757 mmHg 93%
    05:00 +26°C° 0 mm 1 mps 757 mmHg 95%
    06:00 +27°C° 0 mm 1 mps 758 mmHg 89%
    07:00 +28°C° 0 mm 2 mps 759 mmHg 84%
    08:00 +30°C° 0 mm 2 mps 759 mmHg 78%
    09:00 +32°C° 0 mm 2 mps 759 mmHg 70%
    10:00 +34°C° 0 mm 2 mps 759 mmHg 62%
    11:00 +36°C° 0 mm 2 mps 759 mmHg 54%
    12:00 +37°C° 0 mm 2 mps 758 mmHg 51%
    13:00 +38°C° 0 mm 2 mps 757 mmHg 49%
    14:00 +38°C° 0 mm 2 mps 757 mmHg 46%
    15:00 +37°C° 0 mm 2 mps 757 mmHg 51%
    16:00 +36°C° 0 mm 2 mps 757 mmHg 56%
    17:00 +35°C° 0 mm 2 mps 757 mmHg 61%
    18:00 +32°C° 0.3 mm 2 mps 757 mmHg 68%
    19:00 +31°C° 0.3 mm 2 mps 758 mmHg 74%
    20:00 +29°C° 0.3 mm 2 mps 759 mmHg 80%
    21:00 +28°C° 0 mm 2 mps 759 mmHg 83%
    22:00 +28°C° 0 mm 2 mps 758 mmHg 85%
    23:00 +27°C° 0 mm 2 mps 758 mmHg 87%

    21 October, Saturday

    Time Temperature Precipitation Wind Pressure Humidity
    00:00 +27°C° 0 mm 2 mps 758 mmHg 88%
    01:00 +27°C° 0 mm 2 mps 757 mmHg 90%
    02:00 +26°C° 0 mm 2 mps 757 mmHg 91%
    03:00 +26°C° 0 mm 1 mps 757 mmHg 92%
    04:00 +26°C° 0 mm 1 mps 757 mmHg 94%
    05:00 +23°C° 0 mm 0 mps 757 mmHg 96%
    06:00 +25°C° 0 mm 0 mps 758 mmHg 90%
    07:00 +28°C° 0 mm 1 mps 759 mmHg 84%
    08:00 +30°C° 0 mm 1 mps 759 mmHg 78%
    09:00 +32°C° 0 mm 1 mps 759 mmHg 70%
    10:00 +34°C° 0 mm 1 mps 759 mmHg 62%
    11:00 +36°C° 0 mm 1 mps 759 mmHg 54%
    12:00 +37°C° 0 mm 1 mps 758 mmHg 50%
    13:00 +39°C° 0 mm 1 mps 757 mmHg 46%
    14:00 +40°C° 0 mm 1 mps 756 mmHg 42%
    15:00 +37°C° 0 mm 1 mps 756 mmHg 46%
    16:00 +36°C° 0 mm 1 mps 757 mmHg 51%
    17:00 +36°C° 0 mm 2 mps 757 mmHg 55%
    18:00 +34°C° 0 mm 2 mps 757 mmHg 62%
    19:00 +31°C° 0 mm 2 mps 758 mmHg 69%
    20:00 +30°C° 0 mm 3 mps 758 mmHg 75%
    21:00 +29°C° 0 mm 3 mps 758 mmHg 79%
    22:00 +28°C° 0 mm 2 mps 758 mmHg 82%
    23:00 +28°C° 0 mm 2 mps 758 mmHg 86%

    22 October, Sunday

    Time Temperature Precipitation Wind Pressure Humidity
    00:00 +27°C° 0 mm 2 mps 758 mmHg 89%
    01:00 +27°C° 0 mm 1 mps 757 mmHg 91%
    02:00 +26°C° 0 mm 1 mps 757 mmHg 94%
    03:00 +26°C° 0 mm 1 mps 757 mmHg 95%
    04:00 +26°C° 0 mm 1 mps 757 mmHg 96%
    05:00 +26°C° 0 mm 1 mps 758 mmHg 97%
    06:00 +27°C° 0 mm 1 mps 758 mmHg 91%
    07:00 +28°C° 0 mm 1 mps 758 mmHg 84%
    08:00 +30°C° 0 mm 1 mps 759 mmHg 77%
    09:00 +32°C° 0 mm 1 mps 758 mmHg 67%
    10:00 +35°C° 0 mm 1 mps 758 mmHg 57%
    11:00 +37°C° 0 mm 1 mps 758 mmHg 48%
    12:00 +39°C° 0 mm 1 mps 757 mmHg 43%
    13:00 +40°C° 0 mm 1 mps 756 mmHg 38%
    14:00 +41°C° 0 mm 1 mps 756 mmHg 33%
    15:00 +40°C° 0 mm 1 mps 756 mmHg 38%
    16:00 +37°C° 0 mm 1 mps 756 mmHg 43%
    17:00 +35°C° 0 mm 1 mps 756 mmHg 48%
    18:00 +34°C° 0 mm 2 mps 756 mmHg 57%
    19:00 +33°C° 0 mm 3 mps 757 mmHg 67%
    20:00 +30°C° 0 mm 3 mps 758 mmHg 76%
    21:00 +29°C° 0 mm 3 mps 758 mmHg 79%
    22:00 +29°C° 0 mm 3 mps 758 mmHg 83%
    23:00 +28°C° 0 mm 2 mps 758 mmHg 86%
    Show more